When you browse on this site, cookies collect data to enhance your experience and personalize the content and advertising you see.
Visit our Privacy Policy to learn more. By continuing to use the site, you agree to this use of cookies and data.
  • En España
  • Lista de países
  • Para 7 días
  • Temperatura del agua
  • Mapa Satelital
  • El tiempo en el mapa
  • Informadores
  • user-avatar
    Iniciar sesión

    Tiempo cada hora Vinkovcy

    Hoy, 18 Junio, Martes

    Tiempo Temperatura Precipitaciones Viento Presión Humedad
    00:00 +20°C° 0 mm 2 mps 754 mmHg 93%
    01:00 +19°C° 0 mm 2 mps 754 mmHg 94%
    02:00 +19°C° 0 mm 2 mps 754 mmHg 95%
    03:00 +19°C° 0 mm 2 mps 754 mmHg 96%
    04:00 +18°C° 0 mm 2 mps 754 mmHg 96%
    05:00 +19°C° 0 mm 2 mps 755 mmHg 93%
    06:00 +20°C° 0 mm 2 mps 755 mmHg 90%
    07:00 +23°C° 0 mm 1 mps 755 mmHg 88%
    08:00 +24°C° 0.2 mm 2 mps 755 mmHg 84%
    09:00 +25°C° 0.2 mm 2 mps 755 mmHg 80%
    10:00 +26°C° 0.2 mm 2 mps 755 mmHg 76%
    11:00 +27°C° 0.7 mm 2 mps 754 mmHg 73%
    12:00 +27°C° 0.7 mm 2 mps 754 mmHg 71%
    13:00 +28°C° 0.7 mm 2 mps 754 mmHg 69%
    14:00 +28°C° 0 mm 2 mps 753 mmHg 67%
    15:00 +29°C° 0 mm 1 mps 753 mmHg 65%
    16:00 +29°C° 0 mm 1 mps 753 mmHg 62%
    17:00 +27°C° 1.1 mm 1 mps 753 mmHg 69%
    18:00 +26°C° 1.1 mm 2 mps 753 mmHg 76%
    19:00 +24°C° 1.1 mm 2 mps 753 mmHg 83%
    20:00 +23°C° 0.6 mm 2 mps 753 mmHg 85%
    21:00 +23°C° 0.6 mm 2 mps 753 mmHg 87%
    22:00 +21°C° 0.6 mm 2 mps 753 mmHg 89%
    23:00 +20°C° 0 mm 2 mps 753 mmHg 90%

    Mañana, 19 Junio, Miércoles

    Tiempo Temperatura Precipitaciones Viento Presión Humedad
    00:00 +20°C° 0 mm 2 mps 753 mmHg 90%
    01:00 +21°C° 0 mm 1 mps 753 mmHg 91%
    02:00 +20°C° 0 mm 1 mps 753 mmHg 91%
    03:00 +20°C° 0 mm 1 mps 753 mmHg 91%
    04:00 +18°C° 0 mm 0 mps 752 mmHg 91%
    05:00 +21°C° 0 mm 1 mps 753 mmHg 89%
    06:00 +22°C° 0 mm 1 mps 753 mmHg 86%
    07:00 +23°C° 0 mm 1 mps 753 mmHg 84%
    08:00 +25°C° 0 mm 1 mps 753 mmHg 79%
    09:00 +26°C° 0 mm 1 mps 753 mmHg 74%
    10:00 +28°C° 0 mm 1 mps 752 mmHg 69%
    11:00 +28°C° 0 mm 1 mps 752 mmHg 67%
    12:00 +29°C° 0 mm 1 mps 752 mmHg 64%
    13:00 +30°C° 0 mm 1 mps 751 mmHg 62%
    14:00 +30°C° 0 mm 1 mps 751 mmHg 61%
    15:00 +30°C° 0 mm 1 mps 751 mmHg 61%
    16:00 +28°C° 0 mm 0 mps 750 mmHg 60%
    17:00 +29°C° 0.1 mm 1 mps 750 mmHg 66%
    18:00 +28°C° 0.1 mm 1 mps 751 mmHg 72%
    19:00 +26°C° 0.1 mm 1 mps 751 mmHg 77%
    20:00 +25°C° 0.4 mm 1 mps 751 mmHg 80%
    21:00 +24°C° 0.4 mm 1 mps 751 mmHg 82%
    22:00 +21°C° 0.4 mm 0 mps 751 mmHg 85%
    23:00 +21°C° 0.1 mm 0 mps 751 mmHg 86%

    Pasado mañana, 20 Junio, Jueves

    Tiempo Temperatura Precipitaciones Viento Presión Humedad
    00:00 +21°C° 0.1 mm 0 mps 751 mmHg 87%
    01:00 +22°C° 0.1 mm 1 mps 751 mmHg 88%
    02:00 +22°C° 0 mm 1 mps 751 mmHg 89%
    03:00 +19°C° 0 mm 0 mps 751 mmHg 90%
    04:00 +19°C° 0 mm 0 mps 751 mmHg 91%
    05:00 +22°C° 0 mm 1 mps 751 mmHg 88%
    06:00 +24°C° 0 mm 1 mps 751 mmHg 86%
    07:00 +25°C° 0 mm 1 mps 751 mmHg 83%
    08:00 +26°C° 0.4 mm 1 mps 751 mmHg 79%
    09:00 +27°C° 0.4 mm 1 mps 751 mmHg 75%
    10:00 +29°C° 0.4 mm 1 mps 751 mmHg 71%
    11:00 +29°C° 0.3 mm 1 mps 751 mmHg 66%
    12:00 +30°C° 0.3 mm 1 mps 751 mmHg 60%
    13:00 +29°C° 0.3 mm 0 mps 751 mmHg 55%
    14:00 +29°C° 0 mm 0 mps 750 mmHg 55%
    15:00 +29°C° 0 mm 0 mps 750 mmHg 55%
    16:00 +29°C° 0 mm 0 mps 750 mmHg 55%
    17:00 +30°C° 0 mm 1 mps 750 mmHg 61%
    18:00 +28°C° 0 mm 1 mps 750 mmHg 67%
    19:00 +27°C° 0 mm 1 mps 751 mmHg 73%
    20:00 +26°C° 0 mm 1 mps 751 mmHg 75%
    21:00 +25°C° 0 mm 1 mps 751 mmHg 78%
    22:00 +24°C° 0 mm 2 mps 751 mmHg 80%
    23:00 +23°C° 0 mm 1 mps 751 mmHg 81%

    21 Junio, Viernes

    Tiempo Temperatura Precipitaciones Viento Presión Humedad
    00:00 +23°C° 0 mm 1 mps 751 mmHg 83%
    01:00 +22°C° 0 mm 1 mps 751 mmHg 84%
    02:00 +22°C° 0 mm 1 mps 751 mmHg 84%
    03:00 +21°C° 0 mm 1 mps 751 mmHg 85%
    04:00 +21°C° 0 mm 1 mps 752 mmHg 85%
    05:00 +22°C° 0 mm 1 mps 752 mmHg 83%
    06:00 +23°C° 0 mm 1 mps 752 mmHg 80%
    07:00 +25°C° 0 mm 1 mps 753 mmHg 77%
    08:00 +26°C° 0 mm 1 mps 753 mmHg 72%
    09:00 +27°C° 0 mm 1 mps 753 mmHg 66%
    10:00 +29°C° 0 mm 1 mps 753 mmHg 61%
    11:00 +29°C° 0 mm 1 mps 753 mmHg 58%
    12:00 +30°C° 0 mm 1 mps 752 mmHg 55%
    13:00 +31°C° 0 mm 1 mps 752 mmHg 52%
    14:00 +31°C° 0 mm 1 mps 752 mmHg 53%
    15:00 +31°C° 0 mm 1 mps 752 mmHg 55%
    16:00 +31°C° 0 mm 1 mps 752 mmHg 56%
    17:00 +29°C° 0 mm 1 mps 752 mmHg 63%
    18:00 +28°C° 0 mm 1 mps 752 mmHg 70%
    19:00 +26°C° 0 mm 2 mps 752 mmHg 77%
    20:00 +25°C° 0 mm 2 mps 753 mmHg 80%
    21:00 +24°C° 0 mm 2 mps 753 mmHg 83%
    22:00 +23°C° 0 mm 2 mps 754 mmHg 86%
    23:00 +23°C° 0 mm 1 mps 754 mmHg 87%

    22 Junio, Sábado

    Tiempo Temperatura Precipitaciones Viento Presión Humedad
    00:00 +22°C° 0 mm 1 mps 754 mmHg 88%
    01:00 +22°C° 0 mm 1 mps 754 mmHg 90%
    02:00 +22°C° 0.1 mm 1 mps 754 mmHg 90%
    03:00 +21°C° 0.1 mm 1 mps 754 mmHg 91%
    04:00 +21°C° 0.1 mm 1 mps 754 mmHg 92%
    05:00 +22°C° 0 mm 1 mps 754 mmHg 88%
    06:00 +23°C° 0 mm 1 mps 754 mmHg 84%
    07:00 +25°C° 0 mm 1 mps 755 mmHg 80%
    08:00 +26°C° 0 mm 1 mps 755 mmHg 76%
    09:00 +27°C° 0 mm 1 mps 755 mmHg 72%
    10:00 +28°C° 0 mm 1 mps 755 mmHg 67%
    11:00 +29°C° 0 mm 1 mps 754 mmHg 65%
    12:00 +30°C° 0 mm 1 mps 754 mmHg 62%
    13:00 +31°C° 0 mm 1 mps 754 mmHg 60%
    14:00 +31°C° 0 mm 1 mps 754 mmHg 59%
    15:00 +31°C° 0 mm 1 mps 753 mmHg 59%
    16:00 +31°C° 0 mm 1 mps 753 mmHg 59%
    17:00 +30°C° 0.1 mm 1 mps 753 mmHg 65%
    18:00 +28°C° 0.1 mm 1 mps 753 mmHg 72%
    19:00 +27°C° 0.1 mm 2 mps 753 mmHg 79%
    20:00 +26°C° 1.1 mm 2 mps 754 mmHg 82%
    21:00 +25°C° 1.1 mm 2 mps 754 mmHg 86%
    22:00 +24°C° 1.1 mm 2 mps 754 mmHg 89%
    23:00 +23°C° 0.4 mm 2 mps 754 mmHg 90%

    23 Junio, Domingo

    Tiempo Temperatura Precipitaciones Viento Presión Humedad
    00:00 +23°C° 0.4 mm 1 mps 754 mmHg 91%
    01:00 +22°C° 0.4 mm 1 mps 754 mmHg 91%
    02:00 +22°C° 0 mm 1 mps 754 mmHg 92%
    03:00 +22°C° 0 mm 1 mps 754 mmHg 92%
    04:00 +21°C° 0 mm 1 mps 754 mmHg 92%
    05:00 +23°C° 0 mm 1 mps 754 mmHg 90%
    06:00 +24°C° 0 mm 1 mps 755 mmHg 87%
    07:00 +25°C° 0 mm 1 mps 755 mmHg 85%
    08:00 +26°C° 0.1 mm 1 mps 755 mmHg 80%
    09:00 +28°C° 0.1 mm 1 mps 755 mmHg 76%
    10:00 +29°C° 0.1 mm 1 mps 755 mmHg 71%
    11:00 +30°C° 0.7 mm 1 mps 755 mmHg 66%
    12:00 +31°C° 0.7 mm 1 mps 755 mmHg 61%
    13:00 +31°C° 0.7 mm 1 mps 755 mmHg 57%
    14:00 +32°C° 0 mm 1 mps 755 mmHg 56%
    15:00 +32°C° 0 mm 1 mps 754 mmHg 55%
    16:00 +32°C° 0 mm 1 mps 754 mmHg 55%
    17:00 +30°C° 0 mm 1 mps 754 mmHg 60%
    18:00 +29°C° 0 mm 1 mps 754 mmHg 65%
    19:00 +25°C° 0 mm 0 mps 755 mmHg 70%
    20:00 +24°C° 0 mm 0 mps 755 mmHg 72%
    21:00 +23°C° 0 mm 0 mps 755 mmHg 75%
    22:00 +22°C° 0 mm 0 mps 756 mmHg 77%
    23:00 +22°C° 0 mm 0 mps 756 mmHg 79%
    Mostrar más